Powrót do katalogu

KOMPSAT 2

AktywnyNaukaSSO
NORAD 29268·PAYLOAD·🇰🇷 South Korea

Wystrzelony Jul 28, 2006 z Plesetsk Cosmodrome

Loading…

Następne Przeloty (najbliższe 24 godziny)

TLE

ŚwieżeSource: Space-Track

Epoka: Sep 14, 2026, 13:59 UTC

1 29268U 06031A   26257.58277966  .00000294  00000-0  63689-4 0  9990
2 29268  97.8332  77.7296 0015021 145.0888 286.1153 14.64704792 74564

Śledź KOMPSAT 2 w czasie rzeczywistym z AllMySat

Download on the App Store